This is the latest recevied weather packets stored in our database for station/object N2PUI. If no packets are shown the sender has not sent any weather packets the latest 10 day(s).
| Time | Temp. | Humidity | Pressure | Rain* | Wind** | Luminosity | Snow |
|---|---|---|---|---|---|---|---|
| 1777586238 | 8.89° C | 64% | 1010.7 hPa | 0 mm | - | 43 W/m² | - |
| 1777585935 | 9.44° C | 64% | 1010.4 hPa | 0 mm | - | 51 W/m² | - |
| 1777585630 | 9.44° C | 64% | 1010.6 hPa | 0 mm | - | 57 W/m² | - |
| 1777585325 | 9.44° C | 64% | 1010.3 hPa | 0 mm | - | 81 W/m² | - |
| 1777585021 | 10° C | 64% | 1010.2 hPa | 0 mm | - | 113 W/m² | - |
| 1777584717 | 10° C | 64% | 1010.3 hPa | 0 mm | - | 98 W/m² | - |
| 1777584415 | 10° C | 65% | 1010.2 hPa | 0 mm | - | 124 W/m² | - |
| 1777584111 | 10° C | 65% | 1010 hPa | 0 mm | - | 130 W/m² | - |
| 1777583810 | 10° C | 65% | 1010 hPa | 0 mm | - | 127 W/m² | - |
| 1777583505 | 10° C | 64% | 1009.8 hPa | 0 mm | - | 74 W/m² | - |
| 1777583200 | 10° C | 63% | 1009.8 hPa | 0 mm | - | 73 W/m² | - |
| 1777582895 | 10° C | 64% | 1009.7 hPa | 0 mm | - | 71 W/m² | - |
| 1777582593 | 10.56° C | 63% | 1009.8 hPa | 0 mm | - | 131 W/m² | - |
| 1777582288 | 10.56° C | 63% | 1009.4 hPa | 0 mm | - | 209 W/m² | - |
| 1777581986 | 10.56° C | 63% | 1009.7 hPa | 0 mm | - | 188 W/m² | - |
| 1777581681 | 10.56° C | 63% | 1009.6 hPa | 0 mm | - | 181 W/m² | - |
| 1777581375 | 10.56° C | 62% | 1009.7 hPa | 0 mm | - | 170 W/m² | - |
| 1777581070 | 10.56° C | 63% | 1009.5 hPa | 0 mm | - | 176 W/m² | - |
| 1777580769 | 10.56° C | 62% | 1009.5 hPa | 0 mm | - | 159 W/m² | - |
| 1777580465 | 10.56° C | 61% | 1009.5 hPa | 0 mm | - | 182 W/m² | - |
| 1777580160 | 10.56° C | 63% | 1009.5 hPa | 0 mm | - | 189 W/m² | - |
| 1777579858 | 10.56° C | 63% | 1009.6 hPa | 0 mm | - | 169 W/m² | - |
| 1777579557 | 10° C | 63% | 1009.4 hPa | 0 mm | - | 164 W/m² | - |
| 1777579255 | 10.56° C | 64% | 1009.2 hPa | 0 mm | - | 177 W/m² | - |
| 1777578952 | 10.56° C | 64% | 1009.5 hPa | 0 mm | - | 188 W/m² | - |
* Rain latest hour (hover to see other rain measurements)
** Current wind speed in m/s (hover to see current wind gust speed)